| time (UTC) | temp C | wind direction | speed KPH | gust KPH | rain 1hr cm | rain 24hr cm | rain mn cm | humidity % | barometer mb |
| 20260506171045 | 18 | 0.0 | 11.3 | 0.00 | 0.00 | 0.00 | 85 | 1008.3 | |
| 20260506170024 | 18 | 0.0 | 4.8 | 0.00 | 0.00 | 0.00 | 85 | 1008.4 | |
| 20260506165024 | 18 | 90 | 1.6 | 8.0 | 0.00 | 0.00 | 0.00 | 85 | 1008.5 |
| 20260506164024 | 17 | 68 | 1.6 | 8.0 | 0.00 | 0.00 | 0.00 | 85 | 1008.8 |
| 20260506163024 | 17 | 68 | 1.6 | 9.7 | 0.00 | 0.00 | 0.00 | 80 | 1008.8 |
| 20260506162024 | 17 | 0.0 | 3.2 | 0.00 | 0.00 | 0.00 | 69 | 1009.3 | |
| 20260506161024 | 17 | 0.0 | 6.4 | 0.00 | 0.00 | 0.00 | 67 | 1009.1 | |
| 20260506160024 | 17 | 0.0 | 4.8 | 0.00 | 0.00 | 0.00 | 73 | 1008.8 | |
| 20260506155030 | 17 | 0.0 | 1.6 | 0.00 | 0.00 | 0.00 | 61 | 1008.9 | |
| 20260506154025 | 16 | 0.0 | 3.2 | 0.00 | 0.00 | 0.00 | 60 | 1009.0 | |
| 20260506153024 | 16 | 0.0 | 1.6 | 0.00 | 0.00 | 0.00 | 57 | 1009.0 | |
| 20260506152024 | 16 | 0.0 | 3.2 | 0.00 | 0.00 | 0.00 | 66 | 1008.8 | |
| 20260506151024 | 16 | 0.0 | 4.8 | 0.00 | 0.00 | 0.00 | 70 | 1008.8 | |
| 20260506150024 | 16 | 0.0 | 3.2 | 0.00 | 0.00 | 0.00 | 73 | 1009.0 | |
| 20260506145025 | 16 | 0.0 | 4.8 | 0.00 | 0.00 | 0.00 | 74 | 1009.3 | |
| 20260506144024 | 16 | 0.0 | 3.2 | 0.00 | 0.00 | 0.00 | 78 | 1009.6 | |
| 20260506143024 | 16 | 0.0 | 4.8 | 0.00 | 0.00 | 0.00 | 80 | 1009.6 | |
| 20260506142025 | 16 | 0.0 | 3.2 | 0.00 | 0.00 | 0.00 | 83 | 1009.4 | |
| 20260506141044 | 16 | 0.0 | 3.2 | 0.00 | 0.00 | 0.00 | 83 | 1009.3 | |
| 20260506140024 | 16 | 0.0 | 1.6 | 0.00 | 0.00 | 0.00 | 83 | 1009.3 | |
| 20260506135024 | 16 | 0.0 | 3.2 | 0.00 | 0.00 | 0.00 | 85 | 1009.1 | |
| 20260506134044 | 16 | 0.0 | 1.6 | 0.00 | 0.00 | 0.00 | 85 | 1009.2 | |
| 20260506133026 | 16 | 0.0 | 6.4 | 0.00 | 0.00 | 0.00 | 84 | 1009.3 | |
| 20260506132026 | 17 | 0.0 | 1.6 | 0.00 | 0.00 | 0.00 | 83 | 1009.3 | |
| 20260506131024 | 17 | 0.0 | 3.2 | 0.00 | 0.00 | 0.00 | 82 | 1009.5 | |
| 20260506130026 | 17 | 0.0 | 9.7 | 0.00 | 0.00 | 0.00 | 81 | 1009.3 | |
| 20260506125024 | 17 | 68 | 1.6 | 9.7 | 0.00 | 0.00 | 0.00 | 80 | 1009.3 |
| 20260506124026 | 17 | 0.0 | 1.6 | 0.00 | 0.00 | 0.00 | 78 | 1009.2 | |
| 20260506123026 | 17 | 68 | 1.6 | 9.7 | 0.00 | 0.00 | 0.00 | 76 | 1009.0 |
| 20260506122026 | 18 | 0.0 | 3.2 | 0.00 | 0.00 | 0.00 | 76 | 1009.0 | |
| 20260506121026 | 18 | 0.0 | 1.6 | 0.00 | 0.00 | 0.00 | 75 | 1009.0 | |
| 20260506120027 | 18 | 68 | 1.6 | 9.7 | 0.00 | 0.00 | 0.00 | 74 | 1009.3 |
| 20260506115026 | 18 | 0.0 | 4.8 | 0.00 | 0.00 | 0.00 | 75 | 1009.2 | |
| 20260506114028 | 18 | 0.0 | 4.8 | 0.00 | 0.00 | 0.00 | 74 | 1009.3 | |
| 20260506113027 | 18 | 90 | 1.6 | 6.4 | 0.00 | 0.00 | 0.00 | 74 | 1009.2 |
| 20260506112026 | 18 | 0.0 | 4.8 | 0.00 | 0.00 | 0.00 | 74 | 1009.1 | |
| 20260506111026 | 18 | 0.0 | 4.8 | 0.00 | 0.00 | 0.00 | 74 | 1009.0 | |
| 20260506110045 | -17 | 0.0 | 0.0 | 0.00 | 0.00 | 0.00 | |||
| 20260506105025 | -17 | 0.0 | 0.0 | 0.00 | 0.00 | 0.00 | |||
| 20260506104544 | -17 | 0.0 | 0.0 | 0.00 | 0.00 | 0.00 | |||
| 20260506104039 | -17 | 0.0 | 0.0 | 0.00 | 0.00 | 0.00 | |||
| 20260506103525 | -17 | 0.0 | 0.0 | 0.00 | 0.00 | 0.00 | |||
| 20260506102525 | -17 | 0.0 | 0.0 | 0.00 | 0.00 | 0.00 | |||
| 20260506102023 | -17 | 0.0 | 0.0 | 0.00 | 0.00 | 0.00 | |||
| 20260506101620 | -17 | 0.0 | 0.0 | 0.00 | 0.00 | 0.00 | |||
| 20260506101025 | -17 | 0.0 | 0.0 | 0.00 | 0.00 | 0.00 | |||
| 20260506100025 | -17 | 0.0 | 0.0 | 0.00 | 0.00 | 0.00 | |||
| 20260506095544 | -17 | 0.0 | 0.0 | 0.00 | 0.00 | 0.00 | |||
| 20260506095021 | -17 | 0.0 | 0.0 | 0.00 | 0.00 | 0.00 | |||
| 20260506094025 | -17 | 0.0 | 0.0 | 0.00 | 0.00 | 0.00 | |||
| 20260506093102 | -17 | 0.0 | 0.0 | 0.00 | 0.00 | 0.00 | |||
| 20260506092540 | -17 | 0.0 | 0.0 | 0.00 | 0.00 | 0.00 | |||
| 20260506092025 | -17 | 0.0 | 0.0 | 0.00 | 0.00 | 0.00 | |||
| 20260506091024 | -17 | 0.0 | 0.0 | 0.00 | 0.00 | 0.00 | |||
| 20260506090606 | -17 | 0.0 | 0.0 | 0.00 | 0.00 | 0.00 | |||
| 20260506090025 | -17 | 0.0 | 0.0 | 0.00 | 0.00 | 0.00 | |||
| 20260506085525 | -17 | 0.0 | 0.0 | 0.00 | 0.00 | 0.00 | |||
| 20260506084545 | -17 | 0.0 | 0.0 | 0.00 | 0.00 | 0.00 | |||
| 20260506084036 | -17 | 0.0 | 0.0 | 0.00 | 0.00 | 0.00 | 72 | ||
| 20260506083611 | 17 | 135 | 1.6 | 4.8 | 0.00 | 0.00 | 0.00 | 72 | 1009.0 |
| 20260506082526 | 18 | 0.0 | 3.2 | 0.00 | 0.00 | 0.00 | 72 | 1009.1 | |
| 20260506081526 | 18 | 0.0 | 4.8 | 0.00 | 0.00 | 0.00 | 71 | 1009.1 | |
| 20260506080546 | 18 | 135 | 1.6 | 8.0 | 0.00 | 0.00 | 0.00 | 71 | 1009.1 |
| 20260506073527 | 18 | 0.0 | 4.8 | 0.00 | 0.00 | 0.00 | 69 | 1009.1 | |
| 20260506072531 | 19 | 0.0 | 4.8 | 0.00 | 0.00 | 0.00 | 69 | 1009.0 | |
| 20260506071525 | 19 | 135 | 1.6 | 8.0 | 0.00 | 0.00 | 0.00 | 68 | 1009.1 |
| 20260506070545 | 19 | 0.0 | 1.6 | 0.00 | 0.00 | 0.00 | 68 | 1009.2 | |
| 20260506061526 | 20 | 135 | 1.6 | 6.4 | 0.00 | 0.00 | 0.00 | 64 | 1009.4 |
| 20260506060525 | 20 | 0.0 | 1.6 | 0.00 | 0.00 | 0.00 | 63 | 1009.5 | |
| 20260506050526 | 21 | 0.0 | 4.8 | 0.00 | 0.00 | 0.00 | 59 | 1009.6 | |
| 20260506044545 | 21 | 90 | 3.2 | 17.7 | 0.00 | 0.00 | 0.00 | 58 | 1009.7 |
| 20260506043526 | 21 | 0.0 | 3.2 | 0.00 | 0.00 | 0.00 | 58 | 1009.7 | |
| 20260506042525 | 21 | 0.0 | 3.2 | 0.00 | 0.00 | 0.00 | 57 | 1009.6 | |
| 20260506041525 | 22 | 68 | 1.6 | 9.7 | 0.00 | 0.00 | 0.00 | 56 | 1009.7 |
| 20260506040556 | 22 | 90 | 1.6 | 12.9 | 0.00 | 0.00 | 0.00 | 56 | 1009.8 |
| 20260506035525 | 22 | 90 | 1.6 | 8.0 | 0.00 | 0.00 | 0.00 | 56 | 1009.8 |
| 20260506034525 | 22 | 158 | 1.6 | 4.8 | 0.00 | 0.00 | 0.00 | 55 | 1009.7 |
| 20260506033525 | 21 | 0.0 | 4.8 | 0.00 | 0.00 | 0.00 | 55 | 1009.6 | |
| 20260506032525 | 21 | 0.0 | 3.2 | 0.00 | 0.00 | 0.00 | 55 | 1009.6 | |
| 20260506031525 | 21 | 0.0 | 6.4 | 0.00 | 0.00 | 0.00 | 55 | 1009.8 | |
| 20260506030525 | 21 | 180 | 1.6 | 11.3 | 0.00 | 0.00 | 0.00 | 55 | 1009.7 |
| 20260506025525 | 21 | 0.0 | 6.4 | 0.00 | 0.00 | 0.00 | 55 | 1009.8 | |
| 20260506024525 | 21 | 180 | 1.6 | 8.0 | 0.00 | 0.00 | 0.00 | 54 | 1009.8 |
| 20260506023525 | 21 | 0.0 | 3.2 | 0.00 | 0.00 | 0.00 | 53 | 1010.0 | |
| 20260506022525 | 22 | 0.0 | 3.2 | 0.00 | 0.00 | 0.00 | 53 | 1010.0 | |
| 20260506021525 | 22 | 0.0 | 1.6 | 0.00 | 0.00 | 0.00 | 52 | 1010.0 | |
| 20260506020527 | 22 | 0.0 | 6.4 | 0.00 | 0.00 | 0.00 | 51 | 1010.0 | |
| 20260506015526 | 22 | 0.0 | 0.0 | 0.00 | 0.00 | 0.00 | 51 | 1010.0 | |
| 20260506014525 | 22 | 0.0 | 0.0 | 0.00 | 0.00 | 0.00 | 49 | 1009.8 | |
| 20260506013526 | 22 | 0.0 | 3.2 | 0.00 | 0.00 | 0.00 | 48 | 1009.8 | |
| 20260506012525 | 23 | 0.0 | 0.0 | 0.00 | 0.00 | 0.00 | 46 | 1009.7 | |
| 20260506011525 | 23 | 0.0 | 6.4 | 0.00 | 0.00 | 0.00 | 45 | 1009.5 | |
| 20260506010546 | 23 | 0.0 | 8.0 | 0.00 | 0.00 | 0.00 | 44 | 1009.4 | |
| 20260506005526 | 23 | 0.0 | 6.4 | 0.00 | 0.00 | 0.00 | 44 | 1009.4 | |
| 20260506004526 | 23 | 0.0 | 4.8 | 0.00 | 0.00 | 0.00 | 43 | 1009.1 | |
| 20260506003524 | 24 | 0.0 | 4.8 | 0.00 | 0.00 | 0.00 | 42 | 1009.1 | |
| 20260506002526 | 24 | 0.0 | 3.2 | 0.00 | 0.00 | 0.00 | 42 | 1009.0 | |
| 20260506001545 | 25 | 0.0 | 6.4 | 0.00 | 0.00 | 0.00 | 40 | 1008.9 | |
| 20260506000545 | 25 | 0.0 | 4.8 | 0.00 | 0.00 | 0.00 | 40 | 1008.8 | |
| 20260505235526 | 25 | 0.0 | 3.2 | 0.00 | 0.00 | 0.00 | 39 | 1008.7 | |
| 20260505234525 | 25 | 0.0 | 6.4 | 0.00 | 0.00 | 0.00 | 38 | 1008.7 | |
| 20260505233525 | 25 | 0.0 | 1.6 | 0.00 | 0.00 | 0.00 | 37 | 1008.6 | |
| 20260505232525 | 26 | 0.0 | 1.6 | 0.00 | 0.00 | 0.00 | 36 | 1008.7 | |
| 20260505231525 | 26 | 315 | 1.6 | 8.0 | 0.00 | 0.00 | 0.00 | 35 | 1008.6 |
| 20260505230525 | 26 | 0.0 | 4.8 | 0.00 | 0.00 | 0.00 | 35 | 1008.6 | |
| 20260505225525 | 26 | 270 | 1.6 | 9.7 | 0.00 | 0.00 | 0.00 | 33 | 1008.6 |
| 20260505224525 | 27 | 225 | 1.6 | 8.0 | 0.00 | 0.00 | 0.00 | 32 | 1008.7 |
| 20260505223544 | 27 | 293 | 1.6 | 12.9 | 0.00 | 0.00 | 0.00 | 32 | 1008.6 |
| 20260505222525 | 27 | 315 | 1.6 | 9.7 | 0.00 | 0.00 | 0.00 | 31 | 1008.4 |
| 20260505221545 | 27 | 248 | 1.6 | 8.0 | 0.00 | 0.00 | 0.00 | 33 | 1008.4 |
| 20260505220525 | 27 | 203 | 1.6 | 9.7 | 0.00 | 0.00 | 0.00 | 32 | 1008.3 |
| 20260505215525 | 27 | 0.0 | 3.2 | 0.00 | 0.00 | 0.00 | 32 | 1008.4 | |
| 20260505214524 | 27 | 203 | 1.6 | 9.7 | 0.00 | 0.00 | 0.00 | 31 | 1008.5 |
| 20260505213545 | 27 | 270 | 1.6 | 12.9 | 0.00 | 0.00 | 0.00 | 30 | 1008.4 |
| 20260505212524 | 28 | 203 | 1.6 | 6.4 | 0.00 | 0.00 | 0.00 | 28 | 1008.2 |
| 20260505211524 | 28 | 270 | 3.2 | 12.9 | 0.00 | 0.00 | 0.00 | 30 | 1008.1 |
| 20260505210524 | 28 | 68 | 1.6 | 9.7 | 0.00 | 0.00 | 0.00 | 30 | 1008.3 |
| 20260505205524 | 28 | 90 | 1.6 | 4.8 | 0.00 | 0.00 | 0.00 | 29 | 1008.2 |
| 20260505204525 | 28 | 90 | 3.2 | 14.5 | 0.00 | 0.00 | 0.00 | 29 | 1008.4 |
| 20260505203526 | 28 | 68 | 3.2 | 17.7 | 0.00 | 0.00 | 0.00 | 28 | 1008.3 |
| 20260505202525 | 29 | 203 | 3.2 | 8.0 | 0.00 | 0.00 | 0.00 | 29 | 1008.3 |
| 20260505201524 | 29 | 270 | 3.2 | 8.0 | 0.00 | 0.00 | 0.00 | 28 | 1008.3 |
| 20260505200525 | 29 | 203 | 3.2 | 14.5 | 0.00 | 0.00 | 0.00 | 29 | 1008.4 |
| 20260505195525 | 30 | 68 | 3.2 | 17.7 | 0.00 | 0.00 | 0.00 | 29 | 1008.6 |
| 20260505194525 | 30 | 90 | 1.6 | 12.9 | 0.00 | 0.00 | 0.00 | 28 | 1008.5 |
| 20260505193524 | 30 | 90 | 1.6 | 9.7 | 0.00 | 0.00 | 0.00 | 30 | 1008.7 |
| 20260505192545 | 30 | 135 | 3.2 | 19.3 | 0.00 | 0.00 | 0.00 | 29 | 1008.9 |
| 20260505191524 | 30 | 90 | 1.6 | 11.3 | 0.00 | 0.00 | 0.00 | 30 | 1009.0 |
| 20260505190524 | 30 | 90 | 3.2 | 14.5 | 0.00 | 0.00 | 0.00 | 28 | 1009.3 |
| 20260505185524 | 30 | 90 | 1.6 | 6.4 | 0.00 | 0.00 | 0.00 | 33 | 1009.4 |
| 20260505184525 | 30 | 90 | 3.2 | 16.1 | 0.00 | 0.00 | 0.00 | 30 | 1009.7 |
| 20260505183524 | 30 | 158 | 1.6 | 14.5 | 0.00 | 0.00 | 0.00 | 31 | 1009.7 |
| 20260505182524 | 30 | 203 | 1.6 | 9.7 | 0.00 | 0.00 | 0.00 | 31 | 1009.7 |
| 20260505181524 | 30 | 270 | 1.6 | 9.7 | 0.00 | 0.00 | 0.00 | 31 | 1009.8 |
| 20260505180530 | 30 | 0.0 | 4.8 | 0.00 | 0.00 | 0.00 | 35 | 1009.9 | |
| 20260505175524 | 29 | 203 | 1.6 | 12.9 | 0.00 | 0.00 | 0.00 | 34 | 1010.2 |
| 20260505174524 | 29 | 90 | 1.6 | 6.4 | 0.00 | 0.00 | 0.00 | 36 | 1010.1 |
| 20260505173524 | 29 | 68 | 3.2 | 11.3 | 0.00 | 0.00 | 0.00 | 33 | 1010.2 |
| 20260505172545 | 29 | 90 | 1.6 | 11.3 | 0.00 | 0.00 | 0.00 | 33 | 1010.3 |
| 20260505171525 | 29 | 180 | 1.6 | 11.3 | 0.00 | 0.00 | 0.00 | 33 | 1010.4 |